Location: St. Louis
(38.6270°N, 90.1994°W)
Time: 05:06:16
(UTC-05:00)

RS-15 - Pass Details

Date: 28 January 2022
Orbit: 1881 x 2163 km, 64.8° (Epoch: 20 May)

Event Time Altitude Azimuth Distance (km) Brightness Sun altitude
Rises 00:52:59 0° 326° (NW) 5,655 10.6 -67.8°
Reaches altitude 10° 00:56:53 10° 334° (NNW) 4,670 10.1 -67.5°
Enters shadow 00:57:11 11° 335° (NNW) 4,596 10.0 -67.5°
Exits shadow 01:20:42 - 111° (ESE) 4,936 10.2 -64.9°
Sets 01:23:18 0° 116° (ESE) 5,611 10.5 -64.6°
